AO-07 1 07530U 74089B 26016.54712052 -.00000027 00000-0 12044-3 0 9998 2 07530 101.9966 28.1804 0012375 61.3263 90.5306 12.53695112341513 AO-27 1 22825U 93061C 26016.47249316 .00000086 00000-0 49751-4 0 9993 2 22825 98.7093 83.8137 0008424 178.4097 181.7114 14.30891070685309 FO-29 1 24278U 96046B 26016.59745766 .00000005 00000-0 37793-4 0 9990 2 24278 98.5441 246.0473 0350705 129.6066 233.6596 13.53264490452666 ISS 1 25544U 98067A 26016.36962088 .00009695 00000-0 18173-3 0 9999 2 25544 51.6334 331.0355 0007784 24.7534 335.3826 15.49326051548222 SO-50 1 27607U 02058C 26016.07430981 .00000803 00000-0 11369-3 0 9998 2 27607 64.5509 239.4665 0073568 290.1930 69.1274 14.82548864241906 AO-73 1 39444U 13066AE 26016.33097716 .00007365 00000-0 49228-3 0 9990 2 39444 97.8096 345.0587 0038703 2.8108 357.3329 15.06667775656770 IO-86 1 40931U 15052B 25151.18580175 .00001241 00000-0 78118-4 0 9996 2 40931 6.0006 24.0987 0012733 338.8432 21.1169 14.78805930523159 AO-91 1 43017U 17073E 26016.58510877 .00007641 00000-0 35372-3 0 9990 2 43017 97.4927 247.0028 0159938 130.5148 231.0142 15.09639605442495 PO-101 1 43678U 18084H 26016.55060439 .00001448 00000-0 12266-3 0 9993 2 43678 98.1099 206.4357 0006685 300.8513 59.2051 14.99670391393486 QO-100 1 43700U 18090A 26016.59052735 .00000162 00000-0 00000-0 0 9992 2 43700 0.0140 73.6732 0001847 281.0103 359.7249 1.00274248 26155 JO-97 1 43803U 18099AX 26016.60116220 .00011855 00000-0 43476-3 0 9995 2 43803 97.4375 79.3263 0007595 89.7948 270.4162 15.28103930390439 RS-44 1 44909U 19096E 26016.57041886 .00000017 00000-0 18374-4 0 9990 2 44909 82.5196 80.4643 0218283 138.7009 223.0834 12.79746496282959 CSS 1 48274U 21035A 26016.60726816 .00015077 00000-0 18058-3 0 9992 2 48274 41.4653 164.7931 0011266 297.5042 62.4652 15.60562549269472 HO-113 1 50466U 21131B 26016.57324983 .00000403 00000-0 13858-3 0 9990 2 50466 98.5025 109.8169 0004075 178.7817 181.3383 14.41165972213273 MO-122 1 60209U 24125G 26016.57700090 .00027557 00000-0 51159-3 0 9994 2 60209 97.2496 232.0329 0015571 58.0967 302.1796 15.48771441 85992 AO-123 1 61781U 24199AY 26016.60853985 .00007729 00000-0 24568-3 0 9990 2 61781 97.3228 246.6921 0015640 126.6140 233.6543 15.32779654110683 SO-124 1 62690U 25009CK 26016.19372758 .00287604 00000-0 17377-2 0 9990 2 62690 97.3780 105.5371 0004975 291.9296 68.1441 15.76804268 56174 TEVEL2-4 1 63213U 25052D 26016.49494928 .00012750 00000-0 46252-3 0 9990 2 63213 97.4094 273.1150 0001482 339.1090 21.0089 15.28468225 46899 TEVEL2-5 1 63214U 25052E 26016.10945378 .00011754 00000-0 42799-3 0 9994 2 63214 97.4094 272.7137 0001591 340.1450 19.9728 15.28365792 46838 TEVEL2-6 1 63215U 25052F 26016.64158876 .00013641 00000-0 49658-3 0 9991 2 63215 97.4097 273.2302 0001597 336.1284 23.9881 15.28335909 46919 TEVEL2-1 1 63217U 25052H 26016.23366327 .00011749 00000-0 43303-3 0 9998 2 63217 97.4069 272.6054 0002296 351.1002 9.0196 15.27964797 46847 TEVEL2-3 1 63218U 25052J 26015.64292308 .00010347 00000-0 38161-3 0 9999 2 63218 97.4076 272.0266 0002448 353.7109 6.4099 15.27976744 46758 TEVEL2-2 1 63219U 25052K 26016.23438945 .00011639 00000-0 42897-3 0 9991 2 63219 97.4068 272.6070 0002335 352.1135 8.0067 15.27967006 46840 TEVEL2-9 1 63237U 25052AD 26016.42875329 .00011422 00000-0 44120-3 0 9994 2 63237 97.4133 272.4553 0006242 338.3608 21.7366 15.26403503 46838 TEVEL2-7 1 63238U 25052AE 26016.64305519 .00012470 00000-0 48381-3 0 9995 2 63238 97.4135 272.6341 0006308 337.4863 22.6098 15.26233859 46864 TEVEL2-8 1 63239U 25052AF 26016.45258097 .00011966 00000-0 46481-3 0 9991 2 63239 97.4134 272.4286 0006344 339.0251 21.0726 15.26203455 46836 SO-125 1 63492U 25052BN 26016.22220117 .00052025 00000-0 11177-2 0 9993 2 63492 97.4051 275.2508 0006429 339.5562 20.5428 15.44496363 47013 Lobachevsky 1 67284U 25313AN 26016.62467800 .00002793 00000-0 12888-3 0 9990 2 67284 97.4099 93.7725 0011428 164.5199 195.6388 15.21003507 2906 QMR-KWT-2 1 67291U 25313AV 26016.48842972 .00009271 00000-0 41400-3 0 9999 2 67291 97.4115 93.6615 0010258 162.7326 197.4261 15.21528580 2882 NO-44 1 26931U 01043C 26016.45152634 .00000099 00000-0 67855-4 0 9997 2 26931 67.0509 276.7112 0007223 267.8387 92.1888 14.31878073268724 IO-117 1 53106U 22080B 25167.32760529 -.00000003 00000-0 00000-0 0 9996 2 53106 70.1560 65.9804 0008358 24.6429 335.4629 6.42557409 68669 SONATE-2 1 59112U 24043Q 26016.60121908 .00023965 00000-0 47120-3 0 9995 2 59112 97.5335 159.2150 0008869 41.6165 318.5758 15.47239116104369 BOTAN 1 65942U 98067XP 26016.08879022 .00126501 00000-0 93501-3 0 9993 2 65942 51.6266 324.6496 0004860 111.6038 248.5479 15.72046667 15252